Location: Unspecified
(0.0000°N, 0.0000°E)
Time: 07:00:43
(UTC+02:00)

Cosmos 2237 Rocket - Visible Passes

Search period start: 29 September 2016 00:00
Search period end: 09 October 2016 00:00
Orbit: 835 x 850 km, 71.0° (Epoch: 28 September)

Date Brightness Start Highest point End Pass type
(mag) Time Alt. Az. Time Alt. Az. Time Alt. Az.
29 Sep 3.3 05:50:45 10° N 05:55:59 41° ENE 06:01:14 10° SE visible
30 Sep 3.4 05:38:33 25° NNE 05:41:09 39° ENE 05:46:20 10° SE visible
30 Sep 3.8 07:22:11 10° WNW 07:24:56 14° WSW 07:27:42 10° SW visible
01 Oct 3.5 05:26:19 36° ENE 05:26:20 36° ENE 05:31:25 10° SE visible
01 Oct 3.7 07:08:17 13° W 07:10:06 15° WSW 07:13:10 10° SW visible
02 Oct 4.0 05:13:36 26° ESE 05:13:36 26° ESE 05:16:31 10° SE visible
02 Oct 3.6 06:55:32 16° WSW 06:55:32 16° WSW 06:58:36 10° SW visible
03 Oct 4.7 05:00:32 15° SE 05:00:32 15° SE 05:01:35 10° SE visible
03 Oct 3.9 06:42:27 14° SW 06:42:27 14° SW 06:44:00 10° SW visible
04 Oct 4.3 06:29:07 11° SSW 06:29:07 11° SSW 06:29:23 10° SSW visible
